Time,TemperatureF,DewpointF,PressureIn,WindDirection,WindDirectionDegrees,WindSpeedMPH,WindSpeedGustMPH,Humidity,HourlyPrecipIn,Conditions,Clouds,dailyrainin,SoftwareType,DateUTC
2013-04-01 00:00:00,66.8,57.5,30.01,SW,221,6.0,6.0,72,0.00,,,0.00,Wunderground v.1.15,2013-04-01 04:00:00,
2013-04-01 00:02:00,66.7,57.4,30.01,SE,133,6.0,15.0,72,0.00,,,0.00,Wunderground v.1.15,2013-04-01 04:02:00,
2013-04-01 00:06:00,66.5,57.6,30.01,ESE,123,4.0,15.0,73,0.00,,,0.00,Wunderground v.1.15,2013-04-01 04:06:00,
2013-04-01 00:12:00,66.3,57.4,30.01,SW,226,4.0,5.0,73,0.00,,,0.00,Wunderground v.1.15,2013-04-01 04:12:00,
2013-04-01 00:16:00,66.2,57.7,30.00,West,259,4.0,5.0,74,0.00,,,0.00,Wunderground v.1.15,2013-04-01 04:16:00,
2013-04-01 00:22:00,66.2,58.0,30.00,SSE,155,4.0,4.0,75,0.00,,,0.00,Wunderground v.1.15,2013-04-01 04:22:00,
2013-04-01 00:28:00,66.1,57.9,30.00,SSW,200,5.0,9.0,75,0.00,,,0.00,Wunderground v.1.15,2013-04-01 04:28:00,
2013-04-01 00:34:00,66.0,57.8,30.00,SSE,154,5.0,6.0,75,0.00,,,0.00,Wunderground v.1.15,2013-04-01 04:34:00,
2013-04-01 00:40:00,65.9,58.1,30.00,WSW,239,5.0,7.0,76,0.00,,,0.00,Wunderground v.1.15,2013-04-01 04:40:00,
2013-04-01 00:46:00,65.8,58.4,30.00,WSW,237,4.0,7.0,77,0.00,,,0.00,Wunderground v.1.15,2013-04-01 04:46:00,
2013-04-01 00:54:00,65.7,58.3,29.99,SSW,201,5.0,7.0,77,0.00,,,0.00,Wunderground v.1.15,2013-04-01 04:54:00,
2013-04-01 01:00:00,65.6,58.6,29.99,South,173,5.0,5.0,78,0.00,,,0.00,Wunderground v.1.15,2013-04-01 05:00:00,
2013-04-01 01:06:00,65.4,58.4,30.00,SSE,154,5.0,14.0,78,0.00,,,0.00,Wunderground v.1.15,2013-04-01 05:06:00,
2013-04-01 01:12:00,65.2,58.2,29.99,South,184,5.0,5.0,78,0.00,,,0.00,Wunderground v.1.15,2013-04-01 05:12:00,
2013-04-01 01:18:00,65.0,58.3,29.99,SW,223,4.0,7.0,79,0.00,,,0.00,Wunderground v.1.15,2013-04-01 05:18:00,
2013-04-01 01:24:00,65.0,58.3,29.99,WSW,246,5.0,7.0,79,0.00,,,0.00,Wunderground v.1.15,2013-04-01 05:24:00,
2013-04-01 01:30:00,65.0,58.3,29.99,SSW,202,5.0,5.0,79,0.00,,,0.00,Wunderground v.1.15,2013-04-01 05:30:00,
2013-04-01 01:36:00,64.9,58.2,29.99,WSW,249,5.0,9.0,79,0.00,,,0.00,Wunderground v.1.15,2013-04-01 05:36:00,
2013-04-01 01:42:00,64.8,58.5,29.99,SSE,165,4.0,4.0,80,0.00,,,0.00,Wunderground v.1.15,2013-04-01 05:42:00,
2013-04-01 01:48:00,64.6,58.3,29.99,ESE,114,3.0,4.0,80,0.00,,,0.00,Wunderground v.1.15,2013-04-01 05:48:00,
2013-04-01 01:54:00,64.5,58.5,29.98,SSE,157,4.0,4.0,81,0.00,,,0.00,Wunderground v.1.15,2013-04-01 05:54:00,
2013-04-01 02:00:00,64.5,58.5,29.98,SW,235,4.0,6.0,81,0.00,,,0.00,Wunderground v.1.15,2013-04-01 06:00:00,
2013-04-01 02:06:00,64.4,58.4,29.98,SW,221,3.0,10.0,81,0.00,,,0.00,Wunderground v.1.15,2013-04-01 06:06:00,
2013-04-01 02:12:00,64.4,58.4,29.98,SW,217,3.0,6.0,81,0.00,,,0.00,Wunderground v.1.15,2013-04-01 06:12:00,
2013-04-01 02:18:00,64.3,58.3,29.98,SSW,210,4.0,6.0,81,0.00,,,0.00,Wunderground v.1.15,2013-04-01 06:18:00,
2013-04-01 02:24:00,64.1,58.5,29.97,NNW,339,3.0,4.0,82,0.00,,,0.00,Wunderground v.1.15,2013-04-01 06:24:00,
2013-04-01 02:30:00,64.0,58.4,29.97,SE,134,2.0,4.0,82,0.00,,,0.00,Wunderground v.1.15,2013-04-01 06:30:00,
2013-04-01 02:36:00,64.0,58.7,29.97,West,277,3.0,6.0,83,0.00,,,0.00,Wunderground v.1.15,2013-04-01 06:36:00,
2013-04-01 02:42:00,64.0,58.7,29.97,SSW,209,3.0,3.0,83,0.00,,,0.00,Wunderground v.1.15,2013-04-01 06:42:00,
2013-04-01 02:48:00,63.9,58.6,29.97,SSE,152,2.0,3.0,83,0.00,,,0.00,Wunderground v.1.15,2013-04-01 06:48:00,
2013-04-01 02:54:00,63.7,58.8,29.96,SSW,202,2.0,5.0,84,0.00,,,0.00,Wunderground v.1.15,2013-04-01 06:54:00,
2013-04-01 03:00:00,63.8,58.9,29.96,SW,222,2.0,5.0,84,0.00,,,0.00,Wunderground v.1.15,2013-04-01 07:00:00,
2013-04-01 03:06:00,63.9,59.0,29.96,SW,234,2.0,10.0,84,0.00,,,0.00,Wunderground v.1.15,2013-04-01 07:06:00,
2013-04-01 03:12:00,63.9,59.0,29.96,SSW,210,3.0,3.0,84,0.00,,,0.00,Wunderground v.1.15,2013-04-01 07:12:00,
2013-04-01 03:18:00,63.8,58.9,29.96,South,186,2.0,3.0,84,0.00,,,0.00,Wunderground v.1.15,2013-04-01 07:18:00,
2013-04-01 03:24:00,63.7,58.8,29.96,SSE,153,1.0,3.0,84,0.00,,,0.00,Wunderground v.1.15,2013-04-01 07:24:00,
2013-04-01 03:30:00,63.6,58.7,29.96,SW,219,2.0,2.0,84,0.00,,,0.00,Wunderground v.1.15,2013-04-01 07:30:00,
2013-04-01 03:36:00,63.7,58.8,29.96,SW,217,2.0,4.0,84,0.00,,,0.00,Wunderground v.1.15,2013-04-01 07:36:00,
2013-04-01 03:42:00,63.8,58.9,29.96,WSW,254,2.0,3.0,84,0.00,,,0.00,Wunderground v.1.15,2013-04-01 07:42:00,
2013-04-01 03:48:00,63.9,59.0,29.96,SW,217,2.0,7.0,84,0.00,,,0.00,Wunderground v.1.15,2013-04-01 07:48:00,
2013-04-01 03:54:00,63.9,59.0,29.96,SW,217,2.0,3.0,84,0.00,,,0.00,Wunderground v.1.15,2013-04-01 07:54:00,
2013-04-01 04:00:00,63.9,59.0,29.96,ESE,121,2.0,2.0,84,0.00,,,0.00,Wunderground v.1.15,2013-04-01 08:00:00,
2013-04-01 04:06:00,63.9,59.3,29.96,WSW,257,2.0,5.0,85,0.00,,,0.00,Wunderground v.1.15,2013-04-01 08:06:00,
2013-04-01 04:12:00,63.9,59.3,29.96,WSW,240,3.0,4.0,85,0.00,,,0.00,Wunderground v.1.15,2013-04-01 08:12:00,
2013-04-01 04:18:00,63.9,59.3,29.96,SSW,213,3.0,4.0,85,0.00,,,0.00,Wunderground v.1.15,2013-04-01 08:18:00,
2013-04-01 04:24:00,63.9,59.3,29.96,West,259,3.0,4.0,85,0.00,,,0.00,Wunderground v.1.15,2013-04-01 08:24:00,
2013-04-01 04:30:00,64.0,59.4,29.95,SSW,210,4.0,5.0,85,0.00,,,0.00,Wunderground v.1.15,2013-04-01 08:30:00,
2013-04-01 04:38:00,64.0,59.4,29.95,South,178,3.0,5.0,85,0.00,,,0.00,Wunderground v.1.15,2013-04-01 08:38:00,
2013-04-01 04:44:00,64.0,59.4,29.95,WNW,302,3.0,3.0,85,0.00,,,0.00,Wunderground v.1.15,2013-04-01 08:44:00,
2013-04-01 04:50:00,64.0,59.4,29.95,South,173,2.0,2.0,85,0.00,,,0.00,Wunderground v.1.15,2013-04-01 08:50:00,
2013-04-01 04:56:00,63.9,59.3,29.95,SSW,209,2.0,7.0,85,0.00,,,0.00,Wunderground v.1.15,2013-04-01 08:56:00,
2013-04-01 05:02:00,64.0,59.4,29.95,SSW,202,4.0,7.0,85,0.00,,,0.00,Wunderground v.1.15,2013-04-01 09:02:00,
2013-04-01 05:08:00,64.1,59.5,29.95,SSW,213,3.0,7.0,85,0.00,,,0.00,Wunderground v.1.15,2013-04-01 09:08:00,
2013-04-01 05:14:00,64.2,59.6,29.95,SW,214,4.0,5.0,85,0.00,,,0.00,Wunderground v.1.15,2013-04-01 09:14:00,
2013-04-01 05:20:00,64.4,59.5,29.95,South,190,5.0,5.0,84,0.00,,,0.00,Wunderground v.1.15,2013-04-01 09:20:00,
2013-04-01 05:26:00,64.5,59.6,29.96,SSW,198,5.0,5.0,84,0.00,,,0.00,Wunderground v.1.15,2013-04-01 09:26:00,
2013-04-01 05:32:00,64.4,59.5,29.96,SSW,198,4.0,5.0,84,0.00,,,0.00,Wunderground v.1.15,2013-04-01 09:32:00,
2013-04-01 05:38:00,64.5,59.6,29.96,SW,214,5.0,6.0,84,0.00,,,0.00,Wunderground v.1.15,2013-04-01 09:38:00,
2013-04-01 05:44:00,64.5,59.6,29.96,South,179,5.0,5.0,84,0.00,,,0.00,Wunderground v.1.15,2013-04-01 09:44:00,
2013-04-01 05:50:00,64.4,59.8,29.96,SSW,205,5.0,7.0,85,0.00,,,0.00,Wunderground v.1.15,2013-04-01 09:50:00,
2013-04-01 05:58:00,63.9,59.6,29.97,SSW,206,6.0,7.0,86,0.00,,,0.00,Wunderground v.1.15,2013-04-01 09:58:00,
2013-04-01 06:04:00,63.8,59.9,29.97,SW,217,6.0,9.0,87,0.00,,,0.00,Wunderground v.1.15,2013-04-01 10:04:00,
2013-04-01 06:10:00,63.8,59.9,29.97,SSW,207,6.0,6.0,87,0.00,,,0.00,Wunderground v.1.15,2013-04-01 10:10:00,
2013-04-01 06:18:00,63.7,59.8,29.98,SSW,202,5.0,7.0,87,0.00,,,0.00,Wunderground v.1.15,2013-04-01 10:18:00,
2013-04-01 06:24:00,63.7,59.8,29.98,SW,229,6.0,8.0,87,0.00,,,0.00,Wunderground v.1.15,2013-04-01 10:24:00,
2013-04-01 06:30:00,63.5,59.6,29.97,SSW,199,6.0,7.0,87,0.00,,,0.00,Wunderground v.1.15,2013-04-01 10:30:00,
2013-04-01 06:38:00,63.3,59.4,29.97,SSW,202,6.0,8.0,87,0.00,,,0.00,Wunderground v.1.15,2013-04-01 10:38:00,
2013-04-01 06:44:00,63.3,59.7,29.96,SSW,196,6.0,6.0,88,0.00,,,0.00,Wunderground v.1.15,2013-04-01 10:44:00,
2013-04-01 06:50:00,63.3,59.7,29.96,SW,217,6.0,6.0,88,0.00,,,0.00,Wunderground v.1.15,2013-04-01 10:50:00,
2013-04-01 06:58:00,63.3,59.7,29.97,SSE,167,5.0,6.0,88,0.00,,,0.00,Wunderground v.1.15,2013-04-01 10:58:00,
2013-04-01 07:04:00,63.4,59.8,29.97,South,187,6.0,10.0,88,0.00,,,0.00,Wunderground v.1.15,2013-04-01 11:04:00,
2013-04-01 07:10:00,63.5,59.9,29.97,South,183,6.0,6.0,88,0.00,,,0.00,Wunderground v.1.15,2013-04-01 11:10:00,
2013-04-01 07:16:00,63.5,59.9,29.98,South,176,5.0,6.0,88,0.00,,,0.00,Wunderground v.1.15,2013-04-01 11:16:00,
2013-04-01 07:22:00,63.5,59.9,29.98,South,186,5.0,6.0,88,0.00,,,0.00,Wunderground v.1.15,2013-04-01 11:22:00,
2013-04-01 07:28:00,63.4,59.8,29.98,SW,222,4.0,6.0,88,0.00,,,0.00,Wunderground v.1.15,2013-04-01 11:28:00,
2013-04-01 07:34:00,63.5,60.2,29.98,SSW,210,4.0,4.0,89,0.00,,,0.00,Wunderground v.1.15,2013-04-01 11:34:00,
2013-04-01 07:40:00,63.6,60.0,29.98,SW,226,5.0,6.0,88,0.00,,,0.00,Wunderground v.1.15,2013-04-01 11:40:00,
2013-04-01 07:46:00,63.7,60.1,29.98,SSW,199,6.0,9.0,88,0.00,,,0.00,Wunderground v.1.15,2013-04-01 11:46:00,
2013-04-01 07:52:00,63.7,60.1,29.98,South,178,7.0,7.0,88,0.00,,,0.00,Wunderground v.1.15,2013-04-01 11:52:00,
2013-04-01 07:58:00,63.7,60.1,29.99,SW,219,6.0,8.0,88,0.00,,,0.00,Wunderground v.1.15,2013-04-01 11:58:00,
2013-04-01 08:04:00,63.7,60.1,29.99,SSW,198,6.0,9.0,88,0.00,,,0.00,Wunderground v.1.15,2013-04-01 12:04:00,
2013-04-01 08:10:00,64.0,60.4,29.99,South,171,6.0,6.0,88,0.00,,,0.00,Wunderground v.1.15,2013-04-01 12:10:00,
2013-04-01 08:16:00,64.3,60.7,29.99,South,183,6.0,6.0,88,0.00,,,0.00,Wunderground v.1.15,2013-04-01 12:16:00,
2013-04-01 08:22:00,64.7,60.7,29.99,SSW,195,5.0,5.0,87,0.00,,,0.00,Wunderground v.1.15,2013-04-01 12:22:00,
2013-04-01 08:28:00,65.0,60.7,29.99,South,173,5.0,7.0,86,0.00,,,0.00,Wunderground v.1.15,2013-04-01 12:28:00,
2013-04-01 08:34:00,65.2,60.9,29.99,WSW,237,4.0,7.0,86,0.00,,,0.00,Wunderground v.1.15,2013-04-01 12:34:00,
2013-04-01 08:40:00,65.4,61.1,29.99,South,191,5.0,5.0,86,0.00,,,0.00,Wunderground v.1.15,2013-04-01 12:40:00,
2013-04-01 08:48:00,65.7,61.4,30.00,SW,223,5.0,6.0,86,0.00,,,0.00,Wunderground v.1.15,2013-04-01 12:48:00,
2013-04-01 08:54:00,66.1,61.5,30.00,South,191,4.0,5.0,85,0.00,,,0.00,Wunderground v.1.15,2013-04-01 12:54:00,
2013-04-01 09:00:00,66.6,61.6,30.00,SSW,203,4.0,5.0,84,0.00,,,0.00,Wunderground v.1.15,2013-04-01 13:00:00,
2013-04-01 09:06:00,67.2,61.9,30.00,SSE,155,5.0,10.0,83,0.00,,,0.00,Wunderground v.1.15,2013-04-01 13:06:00,
2013-04-01 09:12:00,67.4,61.7,30.00,SSE,148,5.0,5.0,82,0.00,,,0.00,Wunderground v.1.15,2013-04-01 13:12:00,
2013-04-01 09:18:00,67.6,61.9,30.00,SSW,206,5.0,7.0,82,0.00,,,0.00,Wunderground v.1.15,2013-04-01 13:18:00,
2013-04-01 09:24:00,67.8,62.1,30.00,SSW,197,5.0,7.0,82,0.00,,,0.00,Wunderground v.1.15,2013-04-01 13:24:00,
2013-04-01 09:30:00,68.1,62.0,30.00,South,184,4.0,4.0,81,0.00,,,0.00,Wunderground v.1.15,2013-04-01 13:30:00,
2013-04-01 09:38:00,67.9,61.9,30.00,SSW,205,6.0,6.0,81,0.00,,,0.00,Wunderground v.1.15,2013-04-01 13:38:00,
2013-04-01 09:44:00,68.3,62.6,30.00,SSW,193,6.0,6.0,82,0.00,,,0.00,Wunderground v.1.15,2013-04-01 13:44:00,
2013-04-01 09:50:00,68.8,62.7,29.99,SSW,210,6.0,7.0,81,0.00,,,0.00,Wunderground v.1.15,2013-04-01 13:50:00,
2013-04-01 09:56:00,69.0,62.6,30.00,South,188,8.0,11.0,80,0.00,,,0.00,Wunderground v.1.15,2013-04-01 13:56:00,
2013-04-01 10:02:00,69.8,63.3,29.99,South,190,7.0,11.0,80,0.00,,,0.00,Wunderground v.1.15,2013-04-01 14:02:00,
2013-04-01 10:08:00,70.3,63.5,29.99,NE,34,6.0,11.0,79,0.00,,,0.00,Wunderground v.1.15,2013-04-01 14:08:00,
2013-04-01 10:14:00,70.5,63.3,29.99,South,187,5.0,10.0,78,0.00,,,0.00,Wunderground v.1.15,2013-04-01 14:14:00,
2013-04-01 10:20:00,71.2,64.0,29.99,SSW,198,6.0,12.0,78,0.00,,,0.00,Wunderground v.1.15,2013-04-01 14:20:00,
2013-04-01 10:26:00,71.8,64.2,29.99,SW,221,6.0,12.0,77,0.00,,,0.00,Wunderground v.1.15,2013-04-01 14:26:00,
2013-04-01 10:32:00,72.7,64.3,29.99,SW,221,5.0,7.0,75,0.00,,,0.00,Wunderground v.1.15,2013-04-01 14:32:00,
2013-04-01 10:38:00,73.2,64.0,29.99,SSE,165,7.0,9.0,73,0.00,,,0.00,Wunderground v.1.15,2013-04-01 14:38:00,
2013-04-01 10:44:00,73.2,63.6,29.98,SW,219,7.0,10.0,72,0.00,,,0.00,Wunderground v.1.15,2013-04-01 14:44:00,
2013-04-01 10:50:00,73.6,64.0,29.99,NW,316,6.0,6.0,72,0.00,,,0.00,Wunderground v.1.15,2013-04-01 14:50:00,
2013-04-01 10:56:00,73.8,63.8,29.98,WNW,292,5.0,10.0,71,0.00,,,0.00,Wunderground v.1.15,2013-04-01 14:56:00,
2013-04-01 11:02:00,73.5,63.5,29.98,West,268,5.0,14.0,71,0.00,,,0.00,Wunderground v.1.15,2013-04-01 15:02:00,
2013-04-01 11:08:00,73.4,63.8,29.98,NW,304,5.0,14.0,72,0.00,,,0.00,Wunderground v.1.15,2013-04-01 15:08:00,
2013-04-01 11:14:00,73.6,63.6,29.99,West,265,6.0,9.0,71,0.00,,,0.00,Wunderground v.1.15,2013-04-01 15:14:00,
2013-04-01 11:20:00,74.1,63.7,29.98,WNW,290,6.0,7.0,70,0.00,,,0.00,Wunderground v.1.15,2013-04-01 15:20:00,
2013-04-01 11:26:00,74.0,64.0,29.98,WNW,288,5.0,7.0,71,0.00,,,0.00,Wunderground v.1.15,2013-04-01 15:26:00,
2013-04-01 11:32:00,73.9,63.5,29.98,WNW,283,5.0,7.0,70,0.00,,,0.00,Wunderground v.1.15,2013-04-01 15:32:00,
2013-04-01 11:38:00,74.1,64.1,29.98,WSW,237,7.0,7.0,71,0.00,,,0.00,Wunderground v.1.15,2013-04-01 15:38:00,
2013-04-01 11:44:00,75.4,63.2,29.98,NW,318,6.0,10.0,66,0.00,,,0.00,Wunderground v.1.15,2013-04-01 15:44:00,
2013-04-01 11:50:00,75.8,64.1,29.98,WNW,285,6.0,7.0,67,0.00,,,0.00,Wunderground v.1.15,2013-04-01 15:50:00,
2013-04-01 11:58:00,76.2,63.1,29.98,NW,319,6.0,8.0,64,0.00,,,0.00,Wunderground v.1.15,2013-04-01 15:58:00,
2013-04-01 12:04:00,76.9,63.3,29.98,SSW,213,5.0,14.0,63,0.00,,,0.00,Wunderground v.1.15,2013-04-01 16:04:00,
2013-04-01 12:10:00,77.7,63.6,29.98,NW,313,5.0,8.0,62,0.00,,,0.00,Wunderground v.1.15,2013-04-01 16:10:00,
2013-04-01 12:16:00,76.8,63.2,29.97,West,277,7.0,13.0,63,0.00,,,0.00,Wunderground v.1.15,2013-04-01 16:16:00,
2013-04-01 12:22:00,76.6,63.1,29.97,South,171,7.0,8.0,63,0.00,,,0.00,Wunderground v.1.15,2013-04-01 16:22:00,
2013-04-01 12:28:00,76.6,63.1,29.97,WNW,298,6.0,11.0,63,0.00,,,0.00,Wunderground v.1.15,2013-04-01 16:28:00,
2013-04-01 12:34:00,76.1,63.0,29.97,WSW,249,7.0,13.0,64,0.00,,,0.00,Wunderground v.1.15,2013-04-01 16:34:00,
2013-04-01 12:40:00,75.8,62.8,29.97,West,276,8.0,9.0,64,0.00,,,0.00,Wunderground v.1.15,2013-04-01 16:40:00,
2013-04-01 12:48:00,76.0,62.9,29.97,WNW,283,8.0,10.0,64,0.00,,,0.00,Wunderground v.1.15,2013-04-01 16:48:00,
2013-04-01 12:54:00,76.4,63.3,29.97,WSW,240,8.0,9.0,64,0.00,,,0.00,Wunderground v.1.15,2013-04-01 16:54:00,
2013-04-01 13:00:00,77.0,63.4,29.97,West,274,9.0,9.0,63,0.00,,,0.00,Wunderground v.1.15,2013-04-01 17:00:00,
2013-04-01 13:06:00,77.6,63.5,29.96,WNW,298,6.0,14.0,62,0.00,,,0.00,Wunderground v.1.15,2013-04-01 17:06:00,
2013-04-01 13:12:00,78.6,64.0,29.96,NW,321,5.0,5.0,61,0.00,,,0.00,Wunderground v.1.15,2013-04-01 17:12:00,
2013-04-01 13:18:00,78.8,62.8,29.96,WNW,302,6.0,7.0,58,0.00,,,0.00,Wunderground v.1.15,2013-04-01 17:18:00,
2013-04-01 13:24:00,78.4,62.9,29.96,SSW,198,7.0,10.0,59,0.00,,,0.00,Wunderground v.1.15,2013-04-01 17:24:00,
2013-04-01 13:30:00,78.4,63.4,29.96,West,277,6.0,13.0,60,0.00,,,0.00,Wunderground v.1.15,2013-04-01 17:30:00,
2013-04-01 13:38:00,79.8,64.2,29.95,WNW,299,6.0,13.0,59,0.00,,,0.00,Wunderground v.1.15,2013-04-01 17:38:00,
2013-04-01 13:44:00,79.6,63.5,29.95,SW,234,6.0,6.0,58,0.00,,,0.00,Wunderground v.1.15,2013-04-01 17:44:00,
2013-04-01 13:50:00,78.7,63.6,29.95,West,269,6.0,7.0,60,0.00,,,0.00,Wunderground v.1.15,2013-04-01 17:50:00,
2013-04-01 13:56:00,79.1,63.5,29.95,West,265,5.0,8.0,59,0.00,,,0.00,Wunderground v.1.15,2013-04-01 17:56:00,
2013-04-01 14:02:00,79.1,63.5,29.94,NNW,336,5.0,16.0,59,0.00,,,0.00,Wunderground v.1.15,2013-04-01 18:02:00,
2013-04-01 14:08:00,78.9,63.4,29.94,SSE,157,6.0,16.0,59,0.00,,,0.00,Wunderground v.1.15,2013-04-01 18:08:00,
2013-04-01 14:14:00,78.4,63.4,29.94,SSE,155,7.0,11.0,60,0.00,,,0.00,Wunderground v.1.15,2013-04-01 18:14:00,
2013-04-01 14:20:00,77.9,62.4,29.94,WNW,283,8.0,10.0,59,0.00,,,0.00,Wunderground v.1.15,2013-04-01 18:20:00,
2013-04-01 14:26:00,77.5,63.0,29.94,WNW,283,8.0,10.0,61,0.00,,,0.00,Wunderground v.1.15,2013-04-01 18:26:00,
2013-04-01 14:32:00,78.2,63.2,29.94,West,260,8.0,13.0,60,0.00,,,0.00,Wunderground v.1.15,2013-04-01 18:32:00,
2013-04-01 14:38:00,78.7,63.2,29.94,WSW,254,9.0,13.0,59,0.00,,,0.00,Wunderground v.1.15,2013-04-01 18:38:00,
2013-04-01 14:44:00,79.1,63.5,29.93,West,276,9.0,11.0,59,0.00,,,0.00,Wunderground v.1.15,2013-04-01 18:44:00,
2013-04-01 14:50:00,79.5,63.4,29.93,NNW,338,8.0,8.0,58,0.00,,,0.00,Wunderground v.1.15,2013-04-01 18:50:00,
2013-04-01 14:56:00,80.5,63.9,29.93,WNW,296,6.0,8.0,57,0.00,,,0.00,Wunderground v.1.15,2013-04-01 18:56:00,
2013-04-01 15:02:00,81.4,63.2,29.92,SSE,157,6.0,12.0,54,0.00,,,0.00,Wunderground v.1.15,2013-04-01 19:02:00,
2013-04-01 15:08:00,81.9,63.6,29.92,West,259,6.0,13.0,54,0.00,,,0.00,Wunderground v.1.15,2013-04-01 19:08:00,
2013-04-01 15:14:00,81.4,63.2,29.92,WSW,244,7.0,7.0,54,0.00,,,0.00,Wunderground v.1.15,2013-04-01 19:14:00,
2013-04-01 15:20:00,82.2,62.3,29.92,SSE,165,7.0,7.0,51,0.00,,,0.00,Wunderground v.1.15,2013-04-01 19:20:00,
2013-04-01 15:26:00,81.6,63.3,29.91,WSW,252,8.0,8.0,54,0.00,,,0.00,Wunderground v.1.15,2013-04-01 19:26:00,
2013-04-01 15:32:00,80.9,63.2,29.91,West,266,7.0,12.0,55,0.00,,,0.00,Wunderground v.1.15,2013-04-01 19:32:00,
2013-04-01 15:38:00,80.8,62.6,29.91,WNW,287,9.0,16.0,54,0.00,,,0.00,Wunderground v.1.15,2013-04-01 19:38:00,
2013-04-01 15:44:00,81.6,63.3,29.91,WNW,286,9.0,16.0,54,0.00,,,0.00,Wunderground v.1.15,2013-04-01 19:44:00,
2013-04-01 15:50:00,81.9,62.5,29.91,WSW,253,8.0,8.0,52,0.00,,,0.00,Wunderground v.1.15,2013-04-01 19:50:00,
2013-04-01 15:56:00,82.0,62.1,29.91,WSW,252,8.0,10.0,51,0.00,,,0.00,Wunderground v.1.15,2013-04-01 19:56:00,
2013-04-01 16:02:00,81.8,61.9,29.91,West,264,8.0,15.0,51,0.00,,,0.00,Wunderground v.1.15,2013-04-01 20:02:00,
2013-04-01 16:08:00,82.6,62.6,29.91,West,265,8.0,15.0,51,0.00,,,0.00,Wunderground v.1.15,2013-04-01 20:08:00,
2013-04-01 16:14:00,82.7,61.6,29.91,SSE,161,9.0,9.0,49,0.00,,,0.00,Wunderground v.1.15,2013-04-01 20:14:00,
2013-04-01 16:20:00,83.3,61.6,29.90,South,169,8.0,8.0,48,0.00,,,0.00,Wunderground v.1.15,2013-04-01 20:20:00,
2013-04-01 16:26:00,82.4,60.1,29.90,West,280,9.0,14.0,47,0.00,,,0.00,Wunderground v.1.15,2013-04-01 20:26:00,
2013-04-01 16:32:00,81.4,61.0,29.90,NW,312,9.0,9.0,50,0.00,,,0.00,Wunderground v.1.15,2013-04-01 20:32:00,
2013-04-01 16:38:00,80.8,60.4,29.90,West,268,7.0,13.0,50,0.00,,,0.00,Wunderground v.1.15,2013-04-01 20:38:00,
2013-04-01 16:44:00,80.3,60.5,29.90,WNW,298,8.0,12.0,51,0.00,,,0.00,Wunderground v.1.15,2013-04-01 20:44:00,
2013-04-01 16:50:00,79.9,60.2,29.90,West,260,7.0,8.0,51,0.00,,,0.00,Wunderground v.1.15,2013-04-01 20:50:00,
2013-04-01 16:56:00,80.2,61.0,29.90,West,280,9.0,13.0,52,0.00,,,0.00,Wunderground v.1.15,2013-04-01 20:56:00,
2013-04-01 17:02:00,80.7,60.9,29.90,WNW,291,10.0,17.0,51,0.00,,,0.00,Wunderground v.1.15,2013-04-01 21:02:00,
2013-04-01 17:08:00,81.2,61.9,29.90,West,278,9.0,17.0,52,0.00,,,0.00,Wunderground v.1.15,2013-04-01 21:08:00,
2013-04-01 17:14:00,81.4,61.5,29.90,West,267,8.0,12.0,51,0.00,,,0.00,Wunderground v.1.15,2013-04-01 21:14:00,
2013-04-01 17:20:00,82.0,62.1,29.90,WNW,300,8.0,8.0,51,0.00,,,0.00,Wunderground v.1.15,2013-04-01 21:20:00,
2013-04-01 17:26:00,82.0,61.0,29.90,West,279,7.0,8.0,49,0.00,,,0.00,Wunderground v.1.15,2013-04-01 21:26:00,
2013-04-01 17:32:00,81.5,61.1,29.90,West,264,9.0,9.0,50,0.00,,,0.00,Wunderground v.1.15,2013-04-01 21:32:00,
2013-04-01 17:38:00,82.1,61.0,29.90,West,281,8.0,12.0,49,0.00,,,0.00,Wunderground v.1.15,2013-04-01 21:38:00,
2013-04-01 17:44:00,82.1,60.5,29.90,WNW,288,8.0,9.0,48,0.00,,,0.00,Wunderground v.1.15,2013-04-01 21:44:00,
2013-04-01 17:50:00,82.3,60.6,29.90,West,271,8.0,8.0,48,0.00,,,0.00,Wunderground v.1.15,2013-04-01 21:50:00,
2013-04-01 17:56:00,82.1,60.5,29.90,WSW,254,7.0,10.0,48,0.00,,,0.00,Wunderground v.1.15,2013-04-01 21:56:00,
2013-04-01 18:02:00,81.2,60.2,29.90,SW,229,8.0,18.0,49,0.00,,,0.00,Wunderground v.1.15,2013-04-01 22:02:00,
2013-04-01 18:08:00,81.1,60.7,29.90,WSW,249,9.0,18.0,50,0.00,,,0.00,Wunderground v.1.15,2013-04-01 22:08:00,
2013-04-01 18:14:00,81.2,60.8,29.90,WNW,284,9.0,12.0,50,0.00,,,0.00,Wunderground v.1.15,2013-04-01 22:14:00,
2013-04-01 18:20:00,81.6,61.2,29.90,SW,217,7.0,10.0,50,0.00,,,0.00,Wunderground v.1.15,2013-04-01 22:20:00,
2013-04-01 18:26:00,81.3,60.9,29.90,WNW,286,6.0,10.0,50,0.00,,,0.00,Wunderground v.1.15,2013-04-01 22:26:00,
2013-04-01 18:32:00,81.4,61.0,29.90,WSW,245,6.0,7.0,50,0.00,,,0.00,Wunderground v.1.15,2013-04-01 22:32:00,
2013-04-01 18:38:00,81.4,61.0,29.90,NW,311,5.0,7.0,50,0.00,,,0.00,Wunderground v.1.15,2013-04-01 22:38:00,
2013-04-01 18:44:00,81.4,61.5,29.90,West,279,4.0,8.0,51,0.00,,,0.00,Wunderground v.1.15,2013-04-01 22:44:00,
2013-04-01 18:50:00,80.5,61.3,29.91,WNW,296,5.0,8.0,52,0.00,,,0.00,Wunderground v.1.15,2013-04-01 22:50:00,
2013-04-01 18:56:00,80.0,61.3,29.91,WNW,292,6.0,8.0,53,0.00,,,0.00,Wunderground v.1.15,2013-04-01 22:56:00,
2013-04-01 19:02:00,79.7,61.6,29.91,WNW,290,6.0,7.0,54,0.00,,,0.00,Wunderground v.1.15,2013-04-01 23:02:00,
2013-04-01 19:08:00,79.6,61.5,29.91,WNW,298,6.0,15.0,54,0.00,,,0.00,Wunderground v.1.15,2013-04-01 23:08:00,
2013-04-01 19:14:00,79.5,60.9,29.91,NW,304,6.0,8.0,53,0.00,,,0.00,Wunderground v.1.15,2013-04-01 23:14:00,
2013-04-01 19:20:00,79.3,61.2,29.91,NW,305,7.0,7.0,54,0.00,,,0.00,Wunderground v.1.15,2013-04-01 23:20:00,
2013-04-01 19:26:00,79.0,60.9,29.91,West,263,7.0,8.0,54,0.00,,,0.00,Wunderground v.1.15,2013-04-01 23:26:00,
2013-04-01 19:32:00,78.6,61.1,29.91,WNW,287,5.0,6.0,55,0.00,,,0.00,Wunderground v.1.15,2013-04-01 23:32:00,
2013-04-01 19:38:00,78.3,61.3,29.91,WNW,289,5.0,6.0,56,0.00,,,0.00,Wunderground v.1.15,2013-04-01 23:38:00,
2013-04-01 19:44:00,78.0,61.5,29.91,West,279,5.0,6.0,57,0.00,,,0.00,Wunderground v.1.15,2013-04-01 23:44:00,
2013-04-01 19:50:00,77.6,61.7,29.91,West,279,4.0,4.0,58,0.00,,,0.00,Wunderground v.1.15,2013-04-01 23:50:00,
2013-04-01 19:56:00,77.2,61.8,29.92,WNW,292,3.0,4.0,59,0.00,,,0.00,Wunderground v.1.15,2013-04-01 23:56:00,
2013-04-01 20:02:00,76.8,61.4,29.92,West,276,1.0,11.0,59,0.00,,,0.00,Wunderground v.1.15,2013-04-02 00:02:00,
2013-04-01 20:08:00,76.6,61.7,29.92,West,273,2.0,11.0,60,0.00,,,0.00,Wunderground v.1.15,2013-04-02 00:08:00,
2013-04-01 20:16:00,76.0,61.6,29.92,WSW,254,1.0,2.0,61,0.00,,,0.00,Wunderground v.1.15,2013-04-02 00:16:00,
2013-04-01 20:22:00,75.6,61.7,29.92,West,275,1.0,1.0,62,0.00,,,0.00,Wunderground v.1.15,2013-04-02 00:22:00,
2013-04-01 20:28:00,75.4,61.9,29.92,West,274,1.0,1.0,63,0.00,,,0.00,Wunderground v.1.15,2013-04-02 00:28:00,
2013-04-01 20:34:00,75.1,61.6,29.93,West,269,1.0,2.0,63,0.00,,,0.00,Wunderground v.1.15,2013-04-02 00:34:00,
2013-04-01 20:40:00,74.8,61.8,29.93,West,281,1.0,1.0,64,0.00,,,0.00,Wunderground v.1.15,2013-04-02 00:40:00,
2013-04-01 20:46:00,74.5,62.0,29.93,West,277,1.0,2.0,65,0.00,,,0.00,Wunderground v.1.15,2013-04-02 00:46:00,
2013-04-01 20:52:00,74.2,61.7,29.93,WNW,290,1.0,2.0,65,0.00,,,0.00,Wunderground v.1.15,2013-04-02 00:52:00,
2013-04-01 20:58:00,73.9,61.8,29.94,WNW,295,1.0,3.0,66,0.00,,,0.00,Wunderground v.1.15,2013-04-02 00:58:00,
2013-04-01 21:04:00,73.5,61.9,29.94,WNW,290,1.0,7.0,67,0.00,,,0.00,Wunderground v.1.15,2013-04-02 01:04:00,
2013-04-01 21:10:00,73.1,61.9,29.94,WNW,283,1.0,1.0,68,0.00,,,0.00,Wunderground v.1.15,2013-04-02 01:10:00,
2013-04-01 21:16:00,72.7,61.9,29.94,NW,304,1.0,1.0,69,0.00,,,0.00,Wunderground v.1.15,2013-04-02 01:16:00,
2013-04-01 21:22:00,72.6,62.3,29.94,WNW,286,1.0,2.0,70,0.00,,,0.00,Wunderground v.1.15,2013-04-02 01:22:00,
2013-04-01 21:28:00,72.5,62.2,29.94,WNW,299,2.0,3.0,70,0.00,,,0.00,Wunderground v.1.15,2013-04-02 01:28:00,
2013-04-01 21:34:00,72.3,62.0,29.95,WNW,283,2.0,2.0,70,0.00,,,0.00,Wunderground v.1.15,2013-04-02 01:34:00,
2013-04-01 21:40:00,72.1,61.4,29.95,WNW,283,2.0,2.0,69,0.00,,,0.00,Wunderground v.1.15,2013-04-02 01:40:00,
2013-04-01 21:46:00,72.1,61.0,29.95,WNW,300,2.0,4.0,68,0.00,,,0.00,Wunderground v.1.15,2013-04-02 01:46:00,
2013-04-01 21:52:00,72.2,61.0,29.96,WNW,292,2.0,2.0,68,0.00,,,0.00,Wunderground v.1.15,2013-04-02 01:52:00,
2013-04-01 21:58:00,72.3,60.7,29.96,West,273,2.0,3.0,67,0.00,,,0.00,Wunderground v.1.15,2013-04-02 01:58:00,
2013-04-01 22:04:00,72.2,60.6,29.96,NW,306,3.0,3.0,67,0.00,,,0.00,Wunderground v.1.15,2013-04-02 02:04:00,
2013-04-01 22:10:00,71.9,60.8,29.96,WNW,290,2.0,2.0,68,0.00,,,0.00,Wunderground v.1.15,2013-04-02 02:10:00,
2013-04-01 22:16:00,71.6,60.5,29.97,WNW,298,2.0,2.0,68,0.00,,,0.00,Wunderground v.1.15,2013-04-02 02:16:00,
2013-04-01 22:22:00,71.4,60.3,29.97,West,268,2.0,2.0,68,0.00,,,0.00,Wunderground v.1.15,2013-04-02 02:22:00,
2013-04-01 22:28:00,71.2,60.1,29.97,West,281,1.0,2.0,68,0.00,,,0.00,Wunderground v.1.15,2013-04-02 02:28:00,
2013-04-01 22:34:00,71.0,59.9,29.97,WNW,286,1.0,1.0,68,0.00,,,0.00,Wunderground v.1.15,2013-04-02 02:34:00,
2013-04-01 22:40:00,70.9,59.4,29.98,West,271,1.0,1.0,67,0.00,,,0.00,Wunderground v.1.15,2013-04-02 02:40:00,
2013-04-01 22:48:00,70.6,59.5,29.98,West,260,0.0,1.0,68,0.00,,,0.00,Wunderground v.1.15,2013-04-02 02:48:00,
2013-04-01 22:54:00,70.2,59.6,29.98,West,270,0.0,0.0,69,0.00,,,0.00,Wunderground v.1.15,2013-04-02 02:54:00,
2013-04-01 23:00:00,69.6,59.0,29.98,WSW,253,0.0,0.0,69,0.00,,,0.00,Wunderground v.1.15,2013-04-02 03:00:00,
2013-04-01 23:08:00,68.4,58.6,29.98,WSW,252,0.0,5.0,71,0.00,,,0.00,Wunderground v.1.15,2013-04-02 03:08:00,
2013-04-01 23:14:00,67.6,59.0,29.98,WSW,253,0.0,0.0,74,0.00,,,0.00,Wunderground v.1.15,2013-04-02 03:14:00,
2013-04-01 23:20:00,67.0,58.8,29.99,WSW,254,0.0,0.0,75,0.00,,,0.00,Wunderground v.1.15,2013-04-02 03:20:00,
2013-04-01 23:26:00,66.8,59.0,29.99,West,268,0.0,1.0,76,0.00,,,0.00,Wunderground v.1.15,2013-04-02 03:26:00,
2013-04-01 23:32:00,67.1,59.3,29.99,West,275,0.0,0.0,76,0.00,,,0.00,Wunderground v.1.15,2013-04-02 03:32:00,
2013-04-01 23:38:00,67.1,59.3,29.99,West,265,0.0,1.0,76,0.00,,,0.00,Wunderground v.1.15,2013-04-02 03:38:00,
2013-04-01 23:44:00,67.0,59.2,29.99,West,264,1.0,1.0,76,0.00,,,0.00,Wunderground v.1.15,2013-04-02 03:44:00,
2013-04-01 23:50:00,66.9,59.1,29.99,West,275,1.0,2.0,76,0.00,,,0.00,Wunderground v.1.15,2013-04-02 03:50:00,
2013-04-01 23:58:00,66.9,59.1,29.99,West,268,1.0,2.0,76,0.00,,,0.00,Wunderground v.1.15,2013-04-02 03:58:00,